[[{"header":{"parameterUnit":"m.s-1","parameterCategory":1,"la1":30.2991,"la2":30.254,"lo1":-89.0895,"lo2":-89.0444,"dy":0.0017,"dx":0.0017,"nx":28,"ny":28,"refTime":"2025-06-04T09:00:00:Z","depth":0,"parameterNumber":2,"parameterNumberName":"U-component_of_WINDS"},"data":[0,0,0,0,0,0,0,0,0,0,0,0,0,0,0,0,0,0,0,0,0,0,0,0,0,0,0,0,0,0,0,0,0,0,0,0,0,0,0,0,0,0,0,0,0,0,0,0,0,0,0,0,0,0,0,0,0,0,-5.4396,-5.4397,0,-5.4517,-5.4518,-5.4519,-5.4455,-5.4451,-5.4448,-5.4445,-5.4567,-5.4573,-5.458,0,0,0,0,0,0,0,0,0,0,0,0,0,-5.4107,-5.4112,-5.4396,-5.4397,-5.4399,-5.4517,-5.4518,-5.452,-5.4455,-5.4451,-5.4447,-5.4443,-5.4565,-5.4573,-5.458,0,0,0,0,0,0,0,0,0,0,0,0,0,-5.423,-5.4114,-5.4395,-5.4381,-5.438,-5.4516,-5.4518,-5.452,-5.4456,-5.4451,-5.4446,-5.4442,-5.4563,-5.4572,-5.4581,-5.4738,0,0,-5.461,-5.4614,0,0,0,0,0,0,0,0,-5.4223,-5.4241,-5.4381,-5.4382,-5.4382,-5.4466,-5.4461,-5.4593,-5.4457,-5.4427,-5.4445,-5.4439,-5.4537,-5.4549,-5.4582,-5.4744,-5.4749,-5.4611,-5.4617,-5.4621,-5.4624,0,0,0,0,0,0,0,-5.4215,-5.4235,-5.4443,-5.4383,-5.4384,-5.4367,-5.438,-5.4486,-5.4508,-5.443,-5.4425,-5.444,-5.4537,-5.4573,-5.4584,-5.4751,-5.4611,-5.4619,-5.4625,-5.4629,-5.5044,-5.505,0,0,0,0,0,0,-5.4207,-5.4229,-5.444,-5.4447,-5.4289,-5.4377,-5.439,-5.4444,-5.4507,-5.4512,-5.4445,-5.4437,-5.4559,-5.4573,-5.4588,-5.4773,-5.4621,-5.463,-5.4635,-5.5039,-5.5046,-5.5051,0,0,0,0,0,0,-5.4202,-5.4227,-5.4435,-5.4337,-5.4362,-5.4387,-5.4447,-5.4449,-5.4485,-5.4518,-5.4522,-5.4478,-5.4556,-5.4575,-5.4701,-5.4776,-5.4634,-5.4643,-5.5033,-5.5041,-5.5049,-5.5145,0,0,0,0,0,0,-5.4194,-5.4225,-5.4285,-5.4339,-5.4368,-5.4545,-5.4452,-5.4455,-5.4502,-5.4493,-5.455,-5.4555,-5.4554,-5.4687,-5.471,-5.4787,-5.465,-5.5026,-5.5036,-5.5046,-5.5135,-5.5155,-5.5172,0,0,0,0,0,-5.4183,-5.4308,-5.4288,-5.4314,-5.4443,-5.455,-5.4566,-5.4562,-5.4508,-5.4568,-5.4589,-5.4553,-5.4766,-5.47,-5.4726,-5.4806,-5.5021,-5.5034,-5.5045,-5.5126,-5.5151,-5.5172,0,0,0,0,0,0,-5.4261,-5.4314,-5.4294,-5.4439,-5.4491,-5.4539,-5.4614,-5.4589,-5.4657,-5.4646,-5.4638,-5.4652,-5.4781,-5.4808,-5.4734,-5.496,-5.4885,-5.4902,-5.4938,-5.4961,-5.498,-5.4969,-5.4658,0,0,0,0,0,-5.4296,-5.4379,-5.4421,-5.4545,-5.4572,-5.4589,-5.4635,-5.4628,-5.4681,-5.4702,-5.4733,-5.4785,-5.4863,-5.4915,-5.4989,-5.514,-5.515,-5.5208,-5.5227,-5.5242,-5.5256,-5.5335,-5.5361,-5.5091,-5.5091,-5.5091,0,0,-5.4367,-5.4406,-5.4459,-5.4561,-5.46,-5.4685,-5.4607,-5.4701,-5.4763,-5.4716,-5.4835,-5.4861,-5.4918,-5.5057,-5.5119,-5.5082,-5.5334,-5.5258,-5.527,-5.5275,-5.535,-5.5376,-5.5398,-5.5099,-5.5098,-5.5096,0,0,-5.4539,-5.4579,-5.4684,-5.4726,-5.4786,-5.4797,-5.4823,-5.4876,-5.489,-5.501,-5.4976,-5.5051,-5.5187,-5.5228,-5.5267,-5.5457,-5.5425,-5.5482,-5.5577,-5.5655,-5.5676,-5.5694,-5.5758,-5.5782,-5.5496,-5.5497,-5.5497,0,-5.4619,-5.4745,-5.4742,-5.4838,-5.4883,-5.4846,-5.4952,-5.4993,-5.5074,-5.5106,-5.5064,-5.5233,-5.5269,-5.5415,-5.5461,-5.5496,-5.5523,-5.5472,-5.5673,-5.5692,-5.5709,-5.577,-5.5794,-5.5503,-5.5502,-5.5501,-5.5501,0,-5.4839,-5.4928,-5.5007,-5.5086,-5.5141,-5.5242,-5.5253,-5.5309,-5.5298,-5.5313,-5.5435,-5.5478,-5.5559,-5.5595,-5.5585,-5.574,-5.5714,-5.5674,-5.5596,-5.5741,-5.5798,-5.5821,-5.5511,-5.5509,-5.5507,-5.5506,0,0,-5.5059,-5.5137,-5.5165,-5.52,-5.5265,-5.5333,-5.5432,-5.5512,-5.5558,-5.5617,-5.5698,-5.5815,-5.5777,-5.5822,-5.5817,-5.5886,-5.6028,-5.5836,-5.5837,-5.5866,-5.6197,-5.6223,-5.625,-5.601,-5.6015,-5.6018,-5.6191,0,-5.5232,-5.5404,-5.5405,-5.5564,-5.5644,-5.5611,-5.5698,-5.5746,-5.5764,-5.5834,-5.5854,-5.5935,-5.5882,-5.5908,-5.5975,-5.5997,-5.6094,-5.5985,-5.6082,-5.6086,-5.6063,-5.6281,-5.6309,-5.6469,-5.6213,-5.6217,-5.622,0,-5.5455,-5.552,-5.5687,-5.5739,-5.5772,-5.585,-5.5922,-5.5991,-5.6046,-5.6054,-5.6104,-5.6089,-5.6189,-5.6113,-5.625,-5.6176,-5.6216,-5.6234,-5.624,-5.6244,-5.6158,-5.6286,-5.6521,-5.6543,-5.6255,-5.6253,-5.625,0,-5.5593,-5.5723,-5.5839,-5.587,-5.5935,-5.599,-5.6019,-5.6069,-5.6117,-5.6181,-5.6211,-5.6287,-5.6327,-5.6385,-5.639,-5.6335,-5.6527,-5.6452,-5.6533,-5.6533,-5.657,-5.6567,-5.681,-5.6606,-5.6605,-5.6605,-5.6605,0,-5.5782,-5.5884,-5.5901,-5.5972,-5.6085,-5.6086,-5.6198,-5.6223,-5.6268,-5.6342,-5.6321,-5.639,-5.6396,-5.6468,-5.6474,-5.6584,-5.6603,-5.6611,-5.661,-5.661,-5.6608,-5.6632,-5.6619,-5.6611,-5.661,-5.6609,-5.6608,0,-5.5953,-5.5969,-5.6092,-5.6144,-5.616,-5.624,-5.6284,-5.6351,-5.6368,-5.6462,-5.6484,-5.651,-5.6594,-5.6606,-5.6705,-5.6709,-5.6839,-5.683,-5.682,-5.6817,-5.6896,-5.6886,-5.7158,-5.7192,-5.6971,-5.6973,-5.6975,0,-5.607,-5.6147,-5.6208,-5.6256,-5.6288,-5.6367,-5.6415,-5.642,-5.6471,-5.6539,-5.6597,-5.6679,-5.6744,-5.6879,-5.6906,-5.6981,-5.697,-5.7061,-5.6981,-5.6978,-5.6966,-5.6959,-5.6965,-5.7074,-5.7076,-5.7078,-5.708,0,-5.6274,-5.6278,-5.6349,-5.6423,-5.6481,-5.654,-5.6595,-5.6636,-5.6647,-5.6706,-5.6791,-5.6842,-5.6942,-5.7022,-5.7097,-5.7127,-5.7105,-5.7106,-5.7127,-5.7125,-5.7115,-5.7117,-5.6856,-5.7098,-5.7096,-5.7095,-5.7094,-5.7093,-5.6418,-5.6485,-5.6537,-5.6616,-5.6659,-5.6711,-5.6775,-5.68,-5.6872,-5.6953,-5.6953,-5.7045,-5.7098,-5.7196,-5.7231,-5.7303,-5.7274,-5.7307,-5.7314,-5.7321,-5.7326,-5.7108,-5.7318,-5.7317,-5.7317,-5.7316,-5.7316,0,-5.6617,-5.665,-5.6723,-5.68,-5.6863,-5.6839,-5.6899,-5.6952,-5.7034,-5.7085,-5.715,-5.7247,-5.7325,-5.736,-5.7436,-5.7487,-5.7479,-5.7507,-5.75,-5.7507,-5.735,-5.7321,-5.7512,-5.7512,-5.7512,-5.7512,-5.7512,-5.7512,-5.6728,-5.6838,-5.6849,-5.698,-5.7012,-5.7102,-5.7138,-5.7185,-5.7226,-5.7335,-5.74,-5.7423,-5.7467,-5.7547,-5.7617,-5.7625,-5.7652,-5.7684,-5.7687,-5.7538,-5.7518,-5.7499,-5.7472,-5.7691,-5.7691,-5.7836,-5.7838,-5.7839]},{"header":{"parameterUnit":"m.s-1","parameterCategory":1,"la1":30.2991,"la2":30.254,"lo1":-89.0895,"lo2":-89.0444,"dy":0.0017,"dx":0.0017,"nx":28,"ny":28,"refTime":"2025-06-04T09:00:00:Z","depth":0,"parameterNumber":3,"parameterNumberName":"V-component_of_WINDS"},"data":[0,0,0,0,0,0,0,0,0,0,0,0,0,0,0,0,0,0,0,0,0,0,0,0,0,0,0,0,0,0,0,0,0,0,0,0,0,0,0,0,0,0,0,0,0,0,0,0,0,0,0,0,0,0,0,0,0,0,3.0198,3.0198,0,3.0215,3.0215,3.0215,3.0125,3.0123,3.012,3.0118,3.0132,3.0135,3.0137,0,0,0,0,0,0,0,0,0,0,0,0,0,3.0086,3.0088,3.0198,3.0198,3.0198,3.0215,3.0215,3.0215,3.0126,3.0122,3.0119,3.0116,3.0131,3.0134,3.0138,0,0,0,0,0,0,0,0,0,0,0,0,0,3.0122,3.0089,3.0198,3.0156,3.0152,3.0215,3.0215,3.0215,3.0126,3.0122,3.0118,3.0115,3.013,3.0134,3.0138,3.0241,0,0,3.0151,3.0153,0,0,0,0,0,0,0,0,3.012,3.0126,3.0162,3.0159,3.0155,3.0164,3.0181,3.0224,3.0127,3.0136,3.0117,3.0113,3.0145,3.0148,3.016,3.0242,3.0242,3.0151,3.0154,3.0155,3.0157,0,0,0,0,0,0,0,3.0117,3.0125,3.0204,3.0162,3.0158,3.0135,3.0136,3.0188,3.0162,3.0135,3.0128,3.0132,3.0143,3.0156,3.0159,3.0243,3.0151,3.0155,3.0157,3.0159,3.041,3.0414,0,0,0,0,0,0,3.0121,3.0123,3.0204,3.0205,3.0128,3.014,3.0141,3.0165,3.0161,3.0157,3.0135,3.0128,3.0151,3.0155,3.0159,3.0279,3.0155,3.0159,3.0162,3.0406,3.0411,3.0415,0,0,0,0,0,0,3.0119,3.0129,3.0203,3.0162,3.017,3.0146,3.0174,3.0167,3.018,3.0161,3.0156,3.0153,3.0148,3.0154,3.0222,3.0278,3.0161,3.0165,3.0401,3.0408,3.0413,3.052,0,0,0,0,0,0,3.0116,3.0129,3.0168,3.0164,3.0173,3.0266,3.0177,3.017,3.0188,3.0178,3.0177,3.0173,3.0145,3.0216,3.0226,3.0282,3.0168,3.0396,3.0404,3.0411,3.0511,3.0529,3.0544,0,0,0,0,0,3.0112,3.0197,3.0171,3.0181,3.0221,3.0269,3.0274,3.0241,3.0193,3.0232,3.022,3.0173,3.0271,3.0224,3.0234,3.0292,3.0392,3.0402,3.0411,3.0503,3.0525,3.0544,0,0,0,0,0,0,3.0206,3.0195,3.0166,3.0252,3.0263,3.0254,3.0302,3.0265,3.0289,3.0278,3.0236,3.0236,3.0311,3.0309,3.0256,3.0392,3.0323,3.0335,3.039,3.0411,3.0427,3.0425,3.0172,0,0,0,0,0,3.0237,3.0278,3.0266,3.0343,3.035,3.0326,3.0345,3.0319,3.0328,3.0331,3.0324,3.0334,3.0367,3.0389,3.0418,3.0511,3.0509,3.0557,3.0573,3.0587,3.0597,3.0645,3.0666,3.0446,3.0446,3.0446,0,0,3.0301,3.03,3.0328,3.0362,3.0367,3.0409,3.033,3.0378,3.0408,3.0338,3.0402,3.0398,3.0405,3.0487,3.0522,3.0487,3.0658,3.0599,3.061,3.0612,3.0657,3.0678,3.0696,3.0453,3.0452,3.045,0,0,3.0438,3.0443,3.0506,3.0514,3.0523,3.0507,3.0523,3.0521,3.0515,3.0579,3.0528,3.0564,3.0621,3.0629,3.064,3.0784,3.0741,3.0795,3.088,3.0927,3.0945,3.096,3.1009,3.1028,3.0805,3.0805,3.0805,0,3.0515,3.0578,3.0544,3.0596,3.0612,3.0553,3.0617,3.0625,3.0644,3.0656,3.0617,3.0689,3.069,3.0771,3.0806,3.0819,3.0834,3.0793,3.0945,3.096,3.0973,3.102,3.1039,3.0812,3.0811,3.081,3.081,0,3.0672,3.0716,3.0767,3.0787,3.0809,3.0867,3.0841,3.0868,3.0841,3.0829,3.0894,3.0894,3.0922,3.0941,3.0914,3.1019,3.0997,3.0953,3.0882,3.1001,3.1044,3.1062,3.082,3.0818,3.0816,3.0815,0,0,3.0865,3.0868,3.0887,3.0895,3.0903,3.0936,3.0992,3.102,3.1043,3.1059,3.1103,3.1155,3.1115,3.1128,3.1102,3.1145,3.1256,3.1095,3.1094,3.1123,3.137,3.1402,3.1423,3.123,3.1233,3.1236,3.1369,0,3.0997,3.1092,3.1065,3.116,3.12,3.1146,3.1194,3.1204,3.1195,3.1227,3.1216,3.1253,3.1198,3.1205,3.1245,3.1234,3.1305,3.1225,3.1269,3.1271,3.1266,3.1446,3.1478,3.1604,3.1386,3.1389,3.1391,0,3.1164,3.1187,3.1287,3.1288,3.1304,3.1348,3.1372,3.1405,3.1415,3.1405,3.1421,3.1387,3.1441,3.1374,3.1447,3.1393,3.141,3.1408,3.1412,3.1412,3.1336,3.1449,3.1643,3.1661,3.1417,3.1415,3.1413,0,3.1292,3.1349,3.1416,3.1425,3.1429,3.1461,3.1464,3.1471,3.149,3.1512,3.1524,3.1552,3.1566,3.1588,3.1562,3.1516,3.1639,3.1569,3.1631,3.1632,3.1656,3.1655,3.1854,3.1672,3.1672,3.1672,3.1671,0,3.1441,3.1504,3.1473,3.1514,3.1583,3.1551,3.1619,3.1616,3.1623,3.1662,3.1617,3.1654,3.162,3.1654,3.1634,3.1697,3.1704,3.1697,3.1691,3.17,3.17,3.1708,3.1697,3.1677,3.1676,3.1675,3.1674,0,3.1594,3.1577,3.1646,3.1645,3.1647,3.1697,3.1696,3.1733,3.1722,3.1772,3.1782,3.1764,3.1802,3.1779,3.1818,3.1805,3.1886,3.1869,3.1883,3.1877,3.1939,3.1933,3.2149,3.2175,3.1979,3.1981,3.1982,0,3.1689,3.1736,3.1742,3.1765,3.1771,3.181,3.183,3.1801,3.1824,3.184,3.1875,3.191,3.1935,3.1998,3.1988,3.2018,3.1999,3.2073,3.2003,3.2011,3.1998,3.1994,3.1998,3.2086,3.2088,3.209,3.2092,0,3.1859,3.1849,3.188,3.1909,3.1935,3.1956,3.1973,3.1995,3.1967,3.1994,3.2033,3.2054,3.2094,3.2128,3.2153,3.2155,3.2119,3.2115,3.213,3.2138,3.2143,3.2139,3.1918,3.2109,3.2107,3.2106,3.2105,3.2104,3.1984,3.2024,3.2034,3.207,3.2081,3.2099,3.2134,3.2128,3.2161,3.2192,3.2173,3.2219,3.2228,3.2259,3.2266,3.2301,3.2271,3.2294,3.2299,3.2304,3.2312,3.2141,3.2305,3.2305,3.2304,3.2304,3.2304,0,3.215,3.2154,3.2189,3.2215,3.2244,3.221,3.2228,3.2254,3.2295,3.2308,3.2335,3.238,3.2414,3.2408,3.2438,3.2467,3.2451,3.2476,3.2472,3.2472,3.2338,3.2321,3.2488,3.2488,3.2488,3.2488,3.2488,3.2488,3.2239,3.2303,3.2295,3.2364,3.2368,3.2413,3.2427,3.2443,3.2453,3.2505,3.2534,3.253,3.2535,3.2566,3.2595,3.2593,3.2605,3.2636,3.2627,3.25,3.2482,3.2464,3.2448,3.2639,3.2639,3.2758,3.2759,3.276]}]]